Time,TemperatureF,DewpointF,PressureIn,WindDirection,WindDirectionDegrees,WindSpeedMPH,WindSpeedGustMPH,Humidity,HourlyPrecipIn,Conditions,Clouds,dailyrainin,SoftwareType,DateUTC
2013-03-05 00:05:00,33.5,11.0,29.98,WSW,250,0.0,-999.0,39,-99.99,,,0.00,weatherlink.com 1.10,2013-03-05 07:05:00,
2013-03-05 00:20:00,32.4,12.0,29.98,WSW,250,0.0,-999.0,42,-99.99,,,0.00,weatherlink.com 1.10,2013-03-05 07:20:00,
2013-03-05 00:35:00,33.1,12.0,30.00,WSW,250,0.0,-999.0,41,-99.99,,,0.00,weatherlink.com 1.10,2013-03-05 07:35:00,
2013-03-05 00:50:00,33.1,12.0,29.99,WSW,250,0.0,-999.0,41,-99.99,,,0.00,weatherlink.com 1.10,2013-03-05 07:50:00,
2013-03-05 01:06:00,31.2,11.0,30.02,WSW,250,0.0,-999.0,44,-99.99,,,0.00,weatherlink.com 1.10,2013-03-05 08:06:00,
2013-03-05 01:21:00,30.6,11.0,30.03,WSW,250,0.0,-999.0,45,-99.99,,,0.00,weatherlink.com 1.10,2013-03-05 08:21:00,
2013-03-05 01:36:00,30.6,11.0,30.03,WSW,250,0.0,-999.0,45,-99.99,,,0.00,weatherlink.com 1.10,2013-03-05 08:36:00,
2013-03-05 01:51:00,29.5,12.0,30.04,WSW,250,0.0,-999.0,48,-99.99,,,0.00,weatherlink.com 1.10,2013-03-05 08:51:00,
2013-03-05 02:06:00,29.0,12.0,30.06,WSW,250,0.0,-999.0,49,-99.99,,,0.00,weatherlink.com 1.10,2013-03-05 09:06:00,
2013-03-05 02:21:00,28.4,11.0,30.03,WSW,250,0.0,-999.0,49,-99.99,,,0.00,weatherlink.com 1.10,2013-03-05 09:21:00,
2013-03-05 02:36:00,26.3,11.0,30.05,WSW,250,0.0,-999.0,53,-99.99,,,0.00,weatherlink.com 1.10,2013-03-05 09:36:00,
2013-03-05 02:51:00,23.8,10.0,30.07,WSW,250,3.0,-999.0,56,-99.99,,,0.00,weatherlink.com 1.10,2013-03-05 09:51:00,
2013-03-05 03:06:00,21.0,10.0,30.10,WSW,250,0.0,-999.0,62,-99.99,,,0.00,weatherlink.com 1.10,2013-03-05 10:06:00,
2013-03-05 03:21:00,21.0,11.0,30.12,WSW,250,3.0,-999.0,65,-99.99,,,0.00,weatherlink.com 1.10,2013-03-05 10:21:00,
2013-03-05 03:36:00,20.6,11.0,30.12,WSW,250,4.0,-999.0,66,-99.99,,,0.00,weatherlink.com 1.10,2013-03-05 10:36:00,
2013-03-05 03:51:00,19.5,11.0,30.12,WSW,250,5.0,-999.0,68,-99.99,,,0.00,weatherlink.com 1.10,2013-03-05 10:51:00,
2013-03-05 04:06:00,18.9,11.0,30.14,WSW,254,5.0,-999.0,70,-99.99,,,0.00,weatherlink.com 1.10,2013-03-05 11:06:00,
2013-03-05 04:21:00,21.3,13.0,30.16,North,359,0.0,-999.0,70,-99.99,,,0.00,weatherlink.com 1.10,2013-03-05 11:21:00,
2013-03-05 04:36:00,19.1,11.0,30.19,North,359,3.0,-999.0,72,-99.99,,,0.00,weatherlink.com 1.10,2013-03-05 11:36:00,
2013-03-05 04:51:00,20.0,12.0,30.19,North,0,3.0,-999.0,72,-99.99,,,0.00,weatherlink.com 1.10,2013-03-05 11:51:00,
2013-03-05 05:06:00,20.2,12.0,30.18,North,0,3.0,-999.0,70,-99.99,,,0.00,weatherlink.com 1.10,2013-03-05 12:06:00,
2013-03-05 05:23:00,21.3,13.0,30.19,North,0,2.0,-999.0,70,-99.99,,,0.00,weatherlink.com 1.10,2013-03-05 12:23:00,
2013-03-05 05:36:00,21.6,13.0,30.19,North,0,0.0,-999.0,68,-99.99,,,0.00,weatherlink.com 1.10,2013-03-05 12:36:00,
2013-03-05 05:52:00,20.2,12.0,30.22,North,0,3.0,-999.0,71,-99.99,,,0.00,weatherlink.com 1.10,2013-03-05 12:52:00,
2013-03-05 06:07:00,19.4,11.0,30.22,North,0,2.0,-999.0,71,-99.99,,,0.00,weatherlink.com 1.10,2013-03-05 13:07:00,
2013-03-05 06:23:00,18.9,11.0,30.25,North,0,0.0,-999.0,72,-99.99,,,0.00,weatherlink.com 1.10,2013-03-05 13:23:00,
2013-03-05 06:38:00,18.6,11.0,30.26,North,0,3.0,-999.0,73,-99.99,,,0.00,weatherlink.com 1.10,2013-03-05 13:38:00,
2013-03-05 06:52:00,18.1,11.0,30.26,North,0,3.0,-999.0,73,-99.99,,,0.00,weatherlink.com 1.10,2013-03-05 13:52:00,
2013-03-05 07:07:00,19.1,12.0,30.27,North,0,4.0,-999.0,75,-99.99,,,0.00,weatherlink.com 1.10,2013-03-05 14:07:00,
2013-03-05 07:22:00,21.6,15.0,30.27,North,0,0.0,-999.0,74,-99.99,,,0.00,weatherlink.com 1.10,2013-03-05 14:22:00,
2013-03-05 07:38:00,24.5,16.0,30.25,North,0,2.0,-999.0,70,-99.99,,,0.00,weatherlink.com 1.10,2013-03-05 14:38:00,
2013-03-05 07:53:00,27.0,17.0,30.24,North,0,3.0,-999.0,65,-99.99,,,0.00,weatherlink.com 1.10,2013-03-05 14:53:00,
2013-03-05 08:09:00,29.5,17.0,30.23,North,0,0.0,-999.0,61,-99.99,,,0.00,weatherlink.com 1.10,2013-03-05 15:09:00,
2013-03-05 08:22:00,31.6,17.0,30.23,North,0,0.0,-999.0,55,-99.99,,,0.00,weatherlink.com 1.10,2013-03-05 15:22:00,
2013-03-05 08:38:00,34.7,18.0,30.21,North,0,0.0,-999.0,50,-99.99,,,0.00,weatherlink.com 1.10,2013-03-05 15:38:00,
2013-03-05 08:53:00,37.6,17.0,30.20,ENE,61,0.0,-999.0,44,-99.99,,,0.00,weatherlink.com 1.10,2013-03-05 15:53:00,
2013-03-05 09:09:00,40.3,16.0,30.19,NE,41,0.0,-999.0,38,-99.99,,,0.00,weatherlink.com 1.10,2013-03-05 16:09:00,
2013-03-05 09:24:00,42.3,13.0,30.18,ESE,111,2.0,-999.0,31,-99.99,,,0.00,weatherlink.com 1.10,2013-03-05 16:24:00,
2013-03-05 09:39:00,43.5,13.0,30.18,East,88,1.0,-999.0,29,-99.99,,,0.00,weatherlink.com 1.10,2013-03-05 16:39:00,
2013-03-05 09:55:00,44.6,12.0,30.16,ENE,57,4.0,-999.0,27,-99.99,,,0.00,weatherlink.com 1.10,2013-03-05 16:55:00,
2013-03-05 10:09:00,45.4,11.0,30.15,ESE,114,1.0,-999.0,25,-99.99,,,0.00,weatherlink.com 1.10,2013-03-05 17:09:00,
2013-03-05 10:25:00,46.1,9.0,30.14,ESE,117,3.0,-999.0,22,-99.99,,,0.00,weatherlink.com 1.10,2013-03-05 17:25:00,
2013-03-05 10:40:00,47.1,12.0,30.14,SE,146,0.0,-999.0,24,-99.99,,,0.00,weatherlink.com 1.10,2013-03-05 17:40:00,
2013-03-05 10:54:00,47.6,10.0,30.13,NE,53,4.0,-999.0,22,-99.99,,,0.00,weatherlink.com 1.10,2013-03-05 17:54:00,
2013-03-05 11:09:00,47.9,12.0,30.11,SSE,160,0.0,-999.0,23,-99.99,,,0.00,weatherlink.com 1.10,2013-03-05 18:09:00,
2013-03-05 11:25:00,48.9,12.0,30.13,ENE,78,3.0,-999.0,23,-99.99,,,0.00,weatherlink.com 1.10,2013-03-05 18:25:00,
2013-03-05 11:40:00,49.5,12.0,30.12,NNE,18,0.0,-999.0,22,-99.99,,,0.00,weatherlink.com 1.10,2013-03-05 18:40:00,
2013-03-05 11:55:00,51.0,12.0,30.12,SSW,212,3.0,-999.0,21,-99.99,,,0.00,weatherlink.com 1.10,2013-03-05 18:55:00,
2013-03-05 12:10:00,50.8,12.0,30.12,SW,233,1.0,-999.0,21,-99.99,,,0.00,weatherlink.com 1.10,2013-03-05 19:10:00,
2013-03-05 12:25:00,51.6,13.0,30.11,SSW,198,6.0,-999.0,21,-99.99,,,0.00,weatherlink.com 1.10,2013-03-05 19:25:00,
2013-03-05 12:40:00,52.0,13.0,30.11,South,169,4.0,-999.0,21,-99.99,,,0.00,weatherlink.com 1.10,2013-03-05 19:40:00,
2013-03-05 12:56:00,52.8,11.0,30.10,SW,222,1.0,-999.0,19,-99.99,,,0.00,weatherlink.com 1.10,2013-03-05 19:56:00,
2013-03-05 13:11:00,53.9,12.0,30.08,SSE,149,6.0,-999.0,19,-99.99,,,0.00,weatherlink.com 1.10,2013-03-05 20:11:00,
2013-03-05 13:26:00,53.9,11.0,30.08,WSW,239,6.0,-999.0,18,-99.99,,,0.00,weatherlink.com 1.10,2013-03-05 20:26:00,
2013-03-05 13:41:00,54.7,10.0,30.08,WSW,243,3.0,-999.0,17,-99.99,,,0.00,weatherlink.com 1.10,2013-03-05 20:41:00,
2013-03-05 13:56:00,55.3,10.0,30.06,South,176,6.0,-999.0,16,-99.99,,,0.00,weatherlink.com 1.10,2013-03-05 20:56:00,
2013-03-05 14:11:00,55.9,9.0,30.05,SW,221,4.0,-999.0,15,-99.99,,,0.00,weatherlink.com 1.10,2013-03-05 21:11:00,
2013-03-05 14:27:00,55.7,8.0,30.09,SSE,150,4.0,-999.0,15,-99.99,,,0.00,weatherlink.com 1.10,2013-03-05 21:27:00,
2013-03-05 14:42:00,56.3,6.0,30.09,SSE,155,3.0,-999.0,13,-99.99,,,0.00,weatherlink.com 1.10,2013-03-05 21:42:00,
2013-03-05 14:56:00,56.5,6.0,30.08,SSE,155,0.0,-999.0,13,-99.99,,,0.00,weatherlink.com 1.10,2013-03-05 21:56:00,
2013-03-05 15:13:00,56.2,6.0,30.08,South,191,4.0,-999.0,13,-99.99,,,0.00,weatherlink.com 1.10,2013-03-05 22:13:00,
2013-03-05 15:26:00,56.6,6.0,30.09,South,191,0.0,-999.0,13,-99.99,,,0.00,weatherlink.com 1.10,2013-03-05 22:26:00,
2013-03-05 15:43:00,56.0,6.0,30.07,SSW,201,1.0,-999.0,13,-99.99,,,0.00,weatherlink.com 1.10,2013-03-05 22:43:00,
2013-03-05 15:57:00,55.6,5.0,30.08,South,188,6.0,-999.0,13,-99.99,,,0.00,weatherlink.com 1.10,2013-03-05 22:57:00,
2013-03-05 16:12:00,55.4,5.0,30.08,East,93,5.0,-999.0,13,-99.99,,,0.00,weatherlink.com 1.10,2013-03-05 23:12:00,
2013-03-05 16:28:00,55.3,3.0,30.06,ESE,112,0.0,-999.0,12,-99.99,,,0.00,weatherlink.com 1.10,2013-03-05 23:28:00,
2013-03-05 16:43:00,55.0,-1.0,30.06,East,85,3.0,-999.0,10,-99.99,,,0.00,weatherlink.com 1.10,2013-03-05 23:43:00,
2013-03-05 16:57:00,55.1,3.0,30.06,East,85,0.0,-999.0,12,-99.99,,,0.00,weatherlink.com 1.10,2013-03-05 23:57:00,
2013-03-05 17:13:00,53.8,4.0,30.05,East,90,1.0,-999.0,13,-99.99,,,0.00,weatherlink.com 1.10,2013-03-06 00:13:00,
2013-03-05 17:28:00,52.6,4.0,30.08,East,89,0.0,-999.0,14,-99.99,,,0.00,weatherlink.com 1.10,2013-03-06 00:28:00,
2013-03-05 17:44:00,52.2,6.0,30.08,East,86,0.0,-999.0,15,-99.99,,,0.00,weatherlink.com 1.10,2013-03-06 00:44:00,
2013-03-05 17:59:00,51.4,6.0,30.07,East,86,0.0,-999.0,16,-99.99,,,0.00,weatherlink.com 1.10,2013-03-06 00:59:00,
2013-03-05 18:14:00,49.5,6.0,30.09,East,86,3.0,-999.0,17,-99.99,,,0.00,weatherlink.com 1.10,2013-03-06 01:14:00,
2013-03-05 18:28:00,47.9,6.0,30.10,East,86,0.0,-999.0,18,-99.99,,,0.00,weatherlink.com 1.10,2013-03-06 01:28:00,
2013-03-05 18:44:00,47.3,6.0,30.12,East,79,1.0,-999.0,18,-99.99,,,0.00,weatherlink.com 1.10,2013-03-06 01:44:00,
2013-03-05 18:59:00,45.2,5.0,30.12,ENE,74,2.0,-999.0,19,-99.99,,,0.00,weatherlink.com 1.10,2013-03-06 01:59:00,
2013-03-05 19:14:00,42.2,6.0,30.14,ENE,68,3.0,-999.0,22,-99.99,,,0.00,weatherlink.com 1.10,2013-03-06 02:14:00,
2013-03-05 19:29:00,41.3,7.0,30.08,ENE,63,4.0,-999.0,24,-99.99,,,0.00,weatherlink.com 1.10,2013-03-06 02:29:00,
2013-03-05 19:44:00,40.9,7.0,30.10,NE,49,4.0,-999.0,24,-99.99,,,0.00,weatherlink.com 1.10,2013-03-06 02:44:00,
2013-03-05 19:59:00,36.5,8.0,30.10,NE,49,4.0,-999.0,30,-99.99,,,0.00,weatherlink.com 1.10,2013-03-06 02:59:00,
2013-03-05 20:14:00,36.2,11.0,30.14,NE,49,0.0,-999.0,35,-99.99,,,0.00,weatherlink.com 1.10,2013-03-06 03:14:00,
2013-03-05 20:29:00,35.9,11.0,30.07,NE,49,3.0,-999.0,36,-99.99,,,0.00,weatherlink.com 1.10,2013-03-06 03:29:00,
2013-03-05 20:44:00,36.0,12.0,30.07,NE,49,2.0,-999.0,38,-99.99,,,0.00,weatherlink.com 1.10,2013-03-06 03:44:00,
2013-03-05 20:59:00,35.5,12.0,30.07,NE,48,2.0,-999.0,38,-99.99,,,0.00,weatherlink.com 1.10,2013-03-06 03:59:00,
2013-03-05 21:15:00,35.0,15.0,30.07,NNE,18,4.0,-999.0,45,-99.99,,,0.00,weatherlink.com 1.10,2013-03-06 04:15:00,
2013-03-05 21:30:00,33.8,14.0,30.04,NNE,15,2.0,-999.0,45,-99.99,,,0.00,weatherlink.com 1.10,2013-03-06 04:30:00,
2013-03-05 21:45:00,33.2,16.0,30.04,NNE,15,0.0,-999.0,49,-99.99,,,0.00,weatherlink.com 1.10,2013-03-06 04:45:00,
2013-03-05 22:00:00,33.2,16.0,30.05,NNE,16,2.0,-999.0,50,-99.99,,,0.00,weatherlink.com 1.10,2013-03-06 05:00:00,
2013-03-05 22:15:00,33.4,17.0,30.04,NNE,16,5.0,-999.0,52,-99.99,,,0.00,weatherlink.com 1.10,2013-03-06 05:15:00,
2013-03-05 22:30:00,33.2,17.0,30.02,NNE,16,0.0,-999.0,51,-99.99,,,0.00,weatherlink.com 1.10,2013-03-06 05:30:00,
2013-03-05 22:45:00,32.8,17.0,30.02,NNE,16,2.0,-999.0,52,-99.99,,,0.00,weatherlink.com 1.10,2013-03-06 05:45:00,
2013-03-05 23:00:00,34.0,16.0,30.02,NNE,15,4.0,-999.0,48,-99.99,,,0.00,weatherlink.com 1.10,2013-03-06 06:00:00,
2013-03-05 23:15:00,34.9,15.0,30.02,NNE,15,1.0,-999.0,44,-99.99,,,0.00,weatherlink.com 1.10,2013-03-06 06:15:00,
2013-03-05 23:30:00,34.4,14.0,30.00,NNE,15,1.0,-999.0,44,-99.99,,,0.00,weatherlink.com 1.10,2013-03-06 06:30:00,
2013-03-05 23:45:00,35.3,15.0,30.00,NNE,15,2.0,-999.0,43,-99.99,,,0.00,weatherlink.com 1.10,2013-03-06 06:45:00,